Weather History for KLBF - September, 2013

Change the Weather History Date:

Sunday, September 1, 2013

  Actual Average Record
Temperature  
Mean Temperature 70 °F 68 °F  
Max Temperature 85 °F 83 °F 99 °F (2011)
Min Temperature 55 °F 54 °F 35 °F (1956)
Degree Days  
Heating Degree Days 0 2  
Month to date heating degree days 0 2  
Since 1 July heating degree days 13 22  
Cooling Degree Days 5 5  
Month to date cooling degree days 5 5  
Year to date cooling degree days 842 700  
Growing Degree Days 20 (Base 50)    
Moisture  
Dew Point 52 °F    
Average Humidity 57    
Maximum Humidity 86    
Minimum Humidity 27    
Precipitation  
Precipitation 0.00 in 0.05 in 3.33 in (1942)
Month to date precipitation 0.00 0.05  
Year to date precipitation 14.36 16.27  
Snow  
Snow 0.00 in 0.00 in 0.00 in (2002)
Month to date snowfall 0.0 0.0  
Since 1 July snowfall 0.0 0.0  
Since 1 September snowfall 0.0 0.0  
Snow Depth 0.00 in    
Sea Level Pressure  
Sea Level Pressure 30.00 in    
Wind  
Wind Speed 4 mph (NNE)    
Max Wind Speed 17 mph    
Max Gust Speed 22 mph    
Visibility 10 miles    
Events      
T = Trace of Precipitation, MM = Missing Value Source: NWS Daily Summary

Daily Weather History Graph

Daily Weather History Graph

Search for Another Location

Airport or City:

Trip Planner

Search our weather history database for the weather conditions in past years. The results will help you decide how hot, cold, wet, or windy it might be!

Date:

Astronomy

Sep. 01, 2013 Rise Set
Actual Time 7:09 AM CDT 8:14 PM CDT
Civil Twilight 6:41 AM CDT 8:43 PM CDT
Nautical Twilight 6:07 AM CDT 9:16 PM CDT
Astronomical Twilight 5:32 AM CDT 9:51 PM CDT
Moon 3:31 AM CDT (9/1) 5:54 PM CDT (9/1)
Length of Visible Light 14h 01m
Length of Day
13h 05m
Waning Crescent, 13% of the Moon is Illuminated
Sep 1
Waning Crescent
Sep 5
New
Sep 12
First Quarter
Sep 19
Full
Sep 26
Last Quarter

Hourly Weather History & Observations

Time (CDT) Temp. Dew Point Humidity Pressure Visibility Wind Dir Wind Speed Gust Speed Precip Events Conditions
12:53 AM 72.0 °F 62.1 °F 71% 29.91 in 10.0 mi North 4.6 mph - N/A   Clear
1:53 AM 69.1 °F 61.0 °F 75% 29.93 in 10.0 mi NNW 3.5 mph - N/A   Clear
2:53 AM 66.0 °F 61.0 °F 84% 29.94 in 10.0 mi NNW 3.5 mph - N/A   Partly Cloudy
3:53 AM 68.0 °F 55.0 °F 63% 29.93 in 10.0 mi NNE 15.0 mph 21.9 mph N/A   Clear
4:53 AM 64.9 °F 53.1 °F 65% 29.94 in 10.0 mi NNE 5.8 mph - N/A   Clear
5:53 AM 62.1 °F 52.0 °F 70% 29.96 in 10.0 mi NNE 4.6 mph - N/A   Clear
6:53 AM 60.1 °F 52.0 °F 75% 30.01 in 10.0 mi WNW 3.5 mph - N/A   Clear
7:53 AM 57.0 °F 53.1 °F 87% 30.04 in 10.0 mi NW 3.5 mph - N/A   Clear
8:53 AM 64.9 °F 54.0 °F 68% 30.06 in 10.0 mi Calm Calm - N/A   Clear
9:53 AM 69.1 °F 54.0 °F 58% 30.07 in 10.0 mi Calm Calm - N/A   Clear
10:53 AM 75.0 °F 52.0 °F 44% 30.07 in 10.0 mi NNE 4.6 mph - N/A   Clear
11:53 AM 75.9 °F 50.0 °F 40% 30.06 in 10.0 mi Calm Calm - N/A   Clear
12:53 PM 80.1 °F 48.9 °F 34% 30.04 in 10.0 mi NE 3.5 mph - N/A   Clear
1:53 PM 82.0 °F 48.0 °F 30% 30.03 in 10.0 mi Calm Calm - N/A   Clear
2:53 PM 82.9 °F 48.9 °F 31% 30.02 in 10.0 mi NW 6.9 mph - N/A   Clear
3:53 PM 84.0 °F 48.0 °F 28% 30.00 in 10.0 mi North 8.1 mph - N/A   Clear
4:53 PM 84.0 °F 46.9 °F 27% 29.99 in 10.0 mi Variable 5.8 mph - N/A   Clear
5:53 PM 82.9 °F 48.0 °F 29% 29.98 in 10.0 mi NE 5.8 mph - N/A   Clear
6:53 PM 81.0 °F 50.0 °F 34% 29.99 in 10.0 mi NE 5.8 mph - N/A   Clear
7:53 PM 73.9 °F 53.1 °F 48% 30.01 in 10.0 mi NNE 4.6 mph - N/A   Clear
8:53 PM 66.0 °F 52.0 °F 60% 30.03 in 10.0 mi East 3.5 mph - N/A   Clear
9:53 PM 64.0 °F 52.0 °F 65% 30.04 in 10.0 mi East 3.5 mph - N/A   Clear
10:53 PM 60.1 °F 51.1 °F 72% 30.06 in 10.0 mi East 4.6 mph - N/A   Clear
11:53 PM 57.0 °F 51.1 °F 81% 30.07 in 10.0 mi Calm Calm - N/A   Clear